STARLINK-30705, 57945

Orbit data source: Space-Track

STARLINK-30705, 57945 is a payload satellite owned by SpaceX/Seattle (US) in LEO that was launched on Mon, 25 Sep 2023 UTC via an FALCON 9 launch vehicle from the Air Force Western Test Range (AFWTR). Payload-class satellites include a variety of spacecraft equipped with specific instruments for various scientific and technological missions. These include communications satellites like Starlink; space stations such as the ISS; scientific satellites like the Hubble; Earth observation satellites from companies like Planet Labs, Umbra, and HawkEye 360; GPS; miniature CubeSats for education and research; and military/defense satellites.

Loading next visibility...
Identifier
57945, 2023-148L
Orbit
LEO
Country
Flag of USUS
Related business
Manufacturer
SpaceX/Seattle
Mission
Operational Commercial Communications
Bus & Motor
STARLINK V2M, Unknown motor
Mass
730 kg wet, ~700 kg dry
Launch date (UTC)
2023-09-25 (3 years ago)
Launch vehicle
FALCON 9
Launch site
Air Force Western Test Range (AFWTR)
Object type
Payload
Rocket body
Debris
Shape & HBR
Box + 2 Pan, 17.7 m
Radar Cross Section
33.884 m², Large (>1 m²)

Expand to show TLE details & history
Last TLE update: 3 days ago

TLE from 3 days ago
0 STARLINK-30705
1 57945U 23148L   26170.57161115 -.00000924  00000-0 -16235-4 0  9999
2 57945  53.1608 270.1566 0000865 120.7332 239.3756 15.34399086154035
Epoch: 2026-06-19T13:43Z
TLE epoch observation values (Epoch: 2026-06-19T13:43:07.203Z)
Latitude
-0.00001°
Longitude
156.57791°
Altitude
463.909 km
Speed
7.636 km/s
True Right ascension
18h 00m 37s
True Declination
0° 00' 00"
Sunlit
Object was in full shadow at epoch
Visualization orbit readout
Latitude
Unknown
Longitude
Unknown
Altitude
Unknown
Speed
Unknown
Apparent Right ascension
Unknown
Apparent Declination
Unknown
Sunlit
N/A
Visualization observer readout
Local Sidereal Time
21:27:24
Azimuth
Unknown
Elevation
Unknown
Doppler factor
Unknown
Orbital elements
Apogee altitude
463.554 km
Perigee altitude
462.371 km
Semi-major axis
6,841.1 km
Eccentricity
0.00009
Inclination
53.1608°
RAAN
270.1566°
Arg. of periapsis
120.7332°
True anomaly
239.36707°
Mean anomaly
239.3756°
Eccentric anomaly
239.37134°
Mean motion
3.83579 °/min
Orbital period
93.85 mins
BSTAR
-0.000016235
Loading maneuver chart data...
Computing Atmospheric mass density...
Loading historical data...
Loading historical data...
Loading historical data...
Loading historical data...
Loading historical data...
Loading historical data...
Loading historical data...

Documentation

Showing up to 5 results
|